Terug naar catalogus

DELTA 4 R/B

LostMEO
NORAD 38834·ROCKET BODY·🇺🇸 United States

Gelanceerd Oct 4, 2012 vanaf Cape Canaveral Space Force Station

Loading…

Volgende Passages (komende 24 uur)

TLE

VerouderdSource: Space-Track

Epoch: Aug 5, 2026, 08:31 UTC

1 38834U 12053B   26217.35530902  .00000052  00000-0  00000+0 0  9998
2 38834  52.8657 163.4058 0209710 130.8946  53.0237  1.89445614 95734

Volg DELTA 4 R/B in realtime met AllMySat

Download on the App Store